Location: Newark
(10.0000°N, 11.0000°W)
Time: 00:29:49
(UTC+00:00)

N. Korean satellite - Visible Passes

Search period start: 11 December 2019 00:00
Search period end: 21 December 2019 00:00
Orbit: 455 x 506 km, 97.2° (Epoch: 10 December)

Date Brightness Start Highest point End Pass type
(mag) Time Alt. Az. Time Alt. Az. Time Alt. Az.
11 Dec 6.4 06:19:57 10° N 06:23:23 84° WNW 06:26:48 10° SSW visible
12 Dec 8.5 05:54:53 10° NE 05:57:59 32° E 06:01:04 10° SSE visible
13 Dec 9.9 05:31:05 10° ENE 05:32:34 12° E 05:34:02 10° SE visible
13 Dec 10.0 18:56:01 10° SW 18:58:13 15° W 19:00:24 10° WNW visible
15 Dec 6.8 06:11:36 10° NNE 06:15:00 68° E 06:18:23 10° S visible
16 Dec 9.1 05:46:48 10° NE 05:49:35 23° E 05:52:22 10° SSE visible
17 Dec 9.7 18:47:05 10° SSW 18:49:51 20° W 18:52:36 10° NW visible
18 Dec 6.5 06:28:38 10° N 06:31:59 55° WNW 06:35:19 10° SSW visible
19 Dec 7.6 06:03:18 10° NNE 06:06:35 46° E 06:09:53 10° S visible
20 Dec 9.6 05:38:51 10° ENE 05:41:10 17° E 05:43:29 10° SE visible
20 Dec 10.4 19:06:01 10° WSW 19:06:53 11° W 19:07:46 10° W visible
